Flag for U.S.A. Weather past 2 weeks in St. Petersburg, Florida, U.S.A.

Now
89 °F

Sunny.


Feels Like: 100 °F
Forecast: 79 / 87 °F
Wind: 16 mph from Southwest

Location: Whitted Airport

Current Time: Sep 1, 2015 at 1:17:06 PM

Latest Report: Sep 1, 2015 at 11:53 AM


Visibility: 10 mi

Pressure: 30.07 "Hg

Humidity: 65%

Dew point: 76 °F

Location of St. PetersburgLocation

Historic Weather in St. Petersburg — Graph

°F

St. Petersburg temperature yesterday

Maximum temperature yesterday: 87 °F (at 5:53 PM)
Minimum temperature yesterday: 79 °F (at 1:53 AM)
Average temperature yesterday: 82 °F

Past Weeks' High & Low Weather Summary

 TemperatureHumidityPressure
High94 °F (Aug 22, 3:53 PM)94% (Aug 30, 9:02 PM)30.09 "Hg (Aug 30, 9:02 PM)
Low77 °F (Aug 27, 8:53 AM)50% (Aug 25, 3:53 PM)29.85 "Hg (Aug 24, 7:53 PM)
Average84 °F75%29.97 "Hg
* Reported Aug 17 11:53 AM — Sep 1 11:53 AM, St. Petersburg, Weather by CustomWeather, © 2015

Note: Actual official high and low records may vary slightly from our data, if they occured in-between our weather recording intervals... More about our weather records

Advertising

St. Petersburg weather history for previous 24 hours

 ConditionsComfort  
Time TempWeatherWind HumidityBarometerVisibility
11:53 AM
Tue, Sep 1
89 °FSunny.16 mph65%30.07 "Hg10 mi
10:53 AM86 °FSunny.14 mph77%30.06 "Hg10 mi
9:53 AM83 °FSunny.12 mph82%30.05 "Hg10 mi
8:53 AM81 °FSunny.15 mph88%30.04 "Hg10 mi
7:53 AM80 °FPassing clouds.13 mph90%30.03 "Hg10 mi
6:53 AM80 °FPassing clouds.12 mph87%30.02 "Hg10 mi
5:53 AM80 °FClear.9 mph87%29.99 "Hg10 mi
4:53 AM80 °FClear.9 mph87%29.98 "Hg10 mi
3:53 AM80 °FPassing clouds.9 mph90%29.99 "Hg10 mi
2:53 AM81 °FClear.8 mph88%30.00 "Hg10 mi
1:53 AM81 °FClear.12 mph85%30.02 "Hg10 mi
12:57 AM81 °FPartly cloudy.10 mph88%30.03 "Hg10 mi
11:00 PM
Mon, Aug 31
82 °FPartly cloudy.3 mph82%30.04 "Hg10 mi
9:53 PM83 °FPassing clouds.10 mph77%30.02 "Hg10 mi
8:53 PM83 °FThundershowers. Passing clouds.3 mph79%30.01 "Hg10 mi
7:53 PM84 °FPartly sunny.8 mph77%29.99 "Hg10 mi
6:53 PM86 °FSunny.8 mph67%29.98 "Hg10 mi
5:53 PM87 °FPartly sunny.9 mph67%29.98 "Hg10 mi
4:53 PM86 °FPassing clouds.6 mph70%29.98 "Hg10 mi
3:53 PM86 °FScattered clouds.3 mph72%29.99 "Hg10 mi
2:53 PM84 °FScattered clouds.No wind80%30.00 "Hg10 mi
2:00 PM81 °FLight rain. Mostly cloudy.8 mph85%30.02 "Hg10 mi
Weather by CustomWeather, © 2015

See weather overviewHow to use our weather pages